Location: Piedigrotta
(40.9833°N, 14.2000°E)
Time: 11:38:43
(UTC+00:00)

Daily predictions for brighter satellites

Satellite Brightness Start Highest point End
(mag) Time Altitude Azimuth Time Altitude Azimuth Time Altitude Azimuth
CZ-2C R/B 2.9 15:59:10 10° SSE 16:04:06 83° ENE 16:08:54 10° N
Cosmos 2026 Rocket 4.4 15:59:06 10° N 16:04:46 38° ENE 16:10:20 10° SE
CZ-4B R/B 4.3 16:00:57 10° ESE 16:04:52 21° ENE 16:08:44 10° NNE
Cosmos 1408 Rocket 3.8 16:00:40 10° N 16:05:02 75° W 16:09:24 10° S
Cosmos 1340 Rocket 2.8 16:01:28 10° N 16:05:34 74° E 16:09:37 10° SSE
CZ-2C R/B 3.9 16:02:32 10° NE 16:06:11 19° E 16:09:49 10° SE
Cosmos 1151 Rocket 4.5 16:06:52 10° SE 16:09:50 18° E 16:12:50 10° NE
Cosmos 2360 4.4 16:04:55 10° NNW 16:10:28 48° ENE 16:15:58 10° SE
Cosmos 1500 4.2 16:09:47 10° NNE 16:12:53 24° ENE 16:15:55 10° SE
Lacrosse 5 rocket 3.4 16:12:11 10° N 16:12:59 10° NNE 16:13:48 10° NNE
Okean O Rocket 3.2 16:10:43 10° E 16:13:17 15° ENE 16:15:50 10° NNE
Cosmos 1743 Rocket 3.5 16:09:13 10° N 16:13:32 70° E 16:17:51 10° SSE
Meteor 1-20 Rocket 4.3 16:07:55 10° N 16:13:46 67° E 16:19:33 10° SSE
USA 267 3.7 16:14:46 10° NE 16:21:09 58° NW 16:27:30 10° WSW
H-2A R/B 2.6 16:17:16 10° SE 16:21:57 36° ENE 16:26:32 10° N
GPS 2-04 Rocket1 3.9 16:18:59 10° WSW 16:22:51 39° S 16:26:41 10° ESE
Cosmos 1763 Rocket 4.0 16:21:06 10° SSW 16:26:04 60° WNW 16:31:09 10° NNE
CZ-4B R/B 3.6 16:22:20 10° S 16:26:24 58° W 16:30:15 10° NNW
SJ 16-02 4.4 16:24:09 10° NW 16:27:06 18° W 16:30:02 10° SW
Cosmos 1809 Rocket 4.4 16:21:40 10° N 16:27:43 64° E 16:33:43 10° SSE
USA 276 2.3 16:27:55 10° WNW 16:31:01 69° SW 16:34:07 10° SE
Cosmos 1933 3.4 16:27:49 10° S 16:31:52 83° W 16:35:55 10° N
Cosmos 841 Rocket 3.5 16:27:20 10° S 16:32:26 67° ESE 16:37:34 10° NNE
PSLV R/B 3.8 16:29:02 10° SSE 16:32:34 48° ENE 16:36:10 10° N
MOS 1-B 4.5 16:29:32 10° SE 16:35:05 51° ENE 16:40:39 10° N
USA 229 DEB 4.0 16:31:01 10° NW 16:38:29 90° WSW 16:46:22 10° SSE
USA 229 4.0 16:31:07 10° NW 16:38:35 90° ENE 16:46:27 10° SSE
SKYMED 2 4.2 16:35:18 10° NNE 16:39:16 34° E 16:43:13 10° SSE
Cosmos 1937 Rocket 3.5 16:34:14 10° NNW 16:39:34 74° ENE 16:44:52 10° SSE
Cosmos 1666 3.4 16:39:08 10° NNE 16:42:23 28° ENE 16:45:38 10° SE
SL-24 R/B - RUBIN 2 3.8 16:40:44 10° NNW 16:45:02 43° NE 16:49:09 10° SE
Cosmos 2322 Rocket 3.9 16:43:48 10° NNE 16:45:58 13° NE 16:45:58 13° NE
NOAA 6 4.4 16:42:11 10° S 16:47:18 70° WSW 16:52:26 10° NNW
Cosmos 1697 Rocket 2.9 16:43:19 10° NNW 16:48:56 77° WSW 16:54:32 10° SSE
Cosmos 372 Rocket 4.0 16:45:36 10° NNW 16:50:47 59° ENE 16:55:57 10° SSE
Sich 1 2.9 16:47:29 10° N 16:51:49 89° E 16:56:07 10° S
USA 234 3.2 16:46:28 10° SE 16:53:00 80° NE 16:59:34 10° NW
Cosmos 1980 Rocket 2.2 16:47:42 10° NNW 16:53:18 59° ENE 16:58:50 10° SE
Cosmos 1805 Rocket 3.9 16:49:29 10° NNW 16:53:47 67° W 16:58:04 10° S
Meteor 1-14 Rocket 4.4 16:48:51 10° N 16:54:36 56° ENE 17:00:24 10° SSE
Cosmos 2369 3.6 16:49:28 10° NNW 16:55:15 79° ENE 17:00:57 10° SSE
Cosmos 1812 2.6 16:55:03 10° S 16:58:52 74° E 17:02:43 10° NNE
Meteor 1-5 Rocket 4.4 16:53:41 10° N 16:59:34 55° ENE 17:05:19 10° SSE
Cosmos 1092 Rocket 4.5 16:53:37 10° NNW 16:59:55 66° W 17:06:09 10° S
CZ-4C R/B 3.2 16:52:53 10° NNW 16:59:59 51° NE 17:08:10 10° SE
deb Chang Zheng 4 3.6 16:58:36 10° SSE 17:02:47 55° ENE 17:07:01 10° N
SMAP 4.3 16:59:00 10° S 17:03:26 43° W 17:07:53 10° NNW
SL-16 R/B 3.4 17:00:12 10° N 17:04:15 22° NE 17:04:15 22° NE
ISS -3.1 17:01:37 10° NW 17:04:48 36° NNE 17:04:58 35° NE
Cosmos 2082 Rocket 2.3 16:59:26 10° SSW 17:05:08 77° WNW 17:10:43 11° NNE
MOS 1-B Rocket 4.1 17:00:24 10° NNE 17:06:24 89° ESE 17:13:18 10° SSW
NOSS 2-2 (D) 4.4 17:01:56 10° NNW 17:07:26 75° NE 17:15:10 10° SE
Cosmos 1515 Rocket 4.3 17:05:14 10° SSE 17:08:52 31° E 17:08:52 31° E
Cosmos 44 Rocket 4.1 17:10:13 10° NNW 17:14:23 30° NE 17:14:23 30° NE
Meteor 2-16 Rocket 4.3 17:10:26 10° N 17:16:34 81° E 17:22:43 10° S
Cosmos 2142 Rocket 4.5 17:10:38 10° S 17:16:46 85° W 17:23:01 10° N
YAOGAN 3 4.4 17:13:20 10° SSE 17:17:39 68° ENE 17:21:59 10° N
Cosmos 2278 3.6 17:13:37 10° NNW 17:19:19 69° ENE 17:24:58 10° SSE
ARGOS 3.0 17:17:21 10° SSE 17:22:45 78° ENE 17:28:10 10° N
Cosmos 1900 4.2 17:18:46 10° SSW 17:23:37 81° ESE 17:25:34 37° NE
Cosmos 2279 Rocket 4.1 17:18:09 10° S 17:24:21 78° W 17:30:36 10° N
Cosmos 1570 Rocket 4.0 17:19:25 10° SSW 17:24:40 80° WNW 17:28:35 18° NNE
Meteor 1-27 Rocket 4.3 17:20:04 10° SSE 17:24:11 33° ESE 17:24:11 33° ESE
COSMO-SKYMED 1 2.8 17:23:24 12° N 17:27:24 69° WNW 17:31:42 10° SSW
Cosmos 2298 Rocket 4.4 17:24:10 10° N 17:28:50 41° NE 17:28:50 41° NE
Cosmos 1814 Rocket 4.4 17:24:22 10° SSW 17:29:33 62° WNW 17:33:44 16° N
DMSP B5D2-2 4.3 17:29:23 44° E 17:29:47 45° E 17:34:46 10° S
Cosmos 2266 Rocket 4.0 17:25:43 10° N 17:32:01 57° E 17:38:17 10° SSE
Cosmos 921 Rocket 2.8 17:28:29 10° S 17:32:38 68° ESE 17:32:43 68° E
Meteor 2-15 Rocket 4.4 17:27:33 10° S 17:33:33 59° E 17:37:33 22° NNE
ATLAS 5 CENTAUR R/B 3.5 17:29:44 10° NNW 17:33:09 23° N 17:33:09 23° N
CZ-2C R/B 2.9 17:32:06 10° SW 17:35:25 23° SSE 17:35:25 23° SSE
Cosmos 1633 Rocket 3.4 17:32:37 10° NNW 17:36:58 66° W 17:41:18 10° S
GEOS 3 Rocket 4.1 17:37:58 40° NE 17:37:58 40° NE 17:42:25 10° NNW
Cosmos 1818 3.7 17:33:24 10° NNW 17:38:45 52° NE 17:38:50 52° NE
Meteor 2-6 Rocket 4.3 17:33:35 10° SSW 17:39:23 76° W 17:45:02 10° N
APEX 4.2 17:39:21 10° SSW 17:42:09 37° S 17:42:09 37° S
COSMOS 2455 4.1 17:38:13 10° WSW 17:43:43 36° NW 17:48:13 15° N
CZ-4B R/B 3.9 17:39:41 10° S 17:45:00 54° W 17:50:16 10° NNW
CZ-2C R/B 3.3 17:41:45 10° N 17:46:45 50° WNW 17:51:43 10° SW
Spot 2 4.3 17:42:36 10° SSE 17:47:40 70° ENE 17:52:47 10° N
Okean O Rocket 2.3 17:44:49 10° S 17:49:10 54° W 17:53:33 10° NNW
X-37B 3.5 17:50:03 10° SSW 17:50:13 11° SSW 17:50:13 11° SSW
Lacrosse 5 rocket 3.3 17:49:20 10° NNW 17:50:36 18° NNW 17:50:36 18° NNW
Cosmos 1867 4.4 17:54:25 10° S 17:57:54 36° SSE 17:57:54 36° SSE
Meteor 1-10 Rocket 4.5 17:55:29 10° SSW 18:01:16 69° W 18:04:52 23° N
H-2A R/B 4.1 17:57:03 10° SSW 18:01:23 27° W 18:05:41 10° NW
Meteor 1-11 Rocket 3.6 17:59:30 10° N 18:05:09 86° E 18:10:55 10° S
Cosmos 1470 Rocket 4.2 18:01:40 10° NNW 18:06:02 55° W 18:10:23 10° S
Cosmos 1655 Rocket 4.2 18:01:56 10° NNW 18:08:19 73° W 18:14:37 10° S
Cosmos 2360 Rocket 4.3 18:06:25 10° N 18:07:10 13° N 18:07:10 13° N
USA 32 4.3 18:07:22 10° S 18:11:49 64° SSW 18:11:49 64° SSW
Cosmos 2322 Rocket 3.9 18:25:45 10° NNW 18:27:49 23° NNW 18:27:49 23° NNW
CZ-4C R/B 4.0 18:41:32 10° NW 18:48:41 43° WSW 18:56:38 10° S
SL-16 R/B 3.8 18:43:30 10° NNW 18:46:11 28° NW 18:46:11 28° NW
